Location: Wien
(48.2082°N, 16.3738°E)
Time: 03:38:55
(UTC+02:00)

MOZHAYETS 4 - Pass Details

Date: 28 April 2024
Orbit: 649 x 667 km, 98.3° (Epoch: 13 October)

Event Time Altitude Azimuth Distance (km) Brightness Sun altitude
Rises 04:27:59 0° 178° (S) 3,013 10.7 -11.3°
Reaches altitude 10° 04:30:16 10° 183° (S) 2,105 9.9 -11.0°
Maximum altitude 04:34:45 51° 260° (W) 852 7.9 -10.4°
Drops below altitude 10° 04:39:16 10° 336° (NNW) 2,120 10.4 -9.8°
Sets 04:41:35 0° 342° (NNW) 3,037 11.3 -9.4°
